Find Local Weather

World > North America > United States > Kansas

Leavenworth, Kansas Regional Weather

Lat: 39.31N, Lon: 94.92W
Wx Zone: KSZ103
Feedback
Expires:201812160400;;859405
ASUS43 KTOP 160259
RWRKS 

WEATHER ROUNDUP FOR KANSAS
NATIONAL WEATHER SERVICE GOODLAND KS
900 PM CST SAT DEC 15 2018

NOTE:  "FAIR" INDICATES FEW OR NO CLOUDS BELOW 12,000 FEET WITH NO
SIGNIFICANT WEATHER AND/OR OBSTRUCTIONS TO VISIBILITY.


KSZ007>012-019>026-033>040-048>060-102>105-160400-
NORTHEAST KANSAS
  
CITY           SKY/WX    TMP DP  RH WIND       PRES   REMARKS
EMPORIA        CLOUDY    40  13  33 S5        30.18R                  
LAWRENCE       CLOUDY    28  20  71 CALM      30.19R                  
MANHATTAN      CLOUDY    34  21  59 CALM      30.18R                  
OLATHE IND     CLOUDY    39  20  46 NW3       30.19R                  
OLATHE EXE     CLOUDY    41  19  41 NW3       30.18R                  
SALINA         PTCLDY    34  23  64 NW3       30.20R                  
TOPEKA BILLARD CLOUDY    31  18  58 CALM      30.18S                  
TOPEKA FORBES  CLOUDY    30  19  63 CALM      30.18R                  
$$
  

SKY/WX - Weather  TMP - Temperature  DP - Dew Point  RH - Relative Humidity
WIND - Wind Direction/Speed PRES - Barometric Pressure